Location: Colonia Mina de C?rbuni
(46.1667°N, 22.7167°E)
Time: 12:01:21
(UTC+00:00)

deb Explorer IX - Pass Details

Date: 21 April 2024
Orbit: 512 x 891 km, 38.7° (Epoch: 23 May)

Event Time Altitude Azimuth Distance (km) Brightness Sun altitude
Rises 07:51:38 0° 200° (SSW) 3,282 ? 42.6°
Reaches altitude 10° 07:55:14 10° 177° (S) 2,431 ? 43.1°
Maximum altitude 07:58:14 14° 146° (SE) 2,183 ? 43.5°
Drops below altitude 10° 08:01:20 10° 115° (ESE) 2,530 ? 44.0°
Sets 08:05:12 0° 92° (E) 3,507 ? 44.5°
